Satellite-Ground Cal/Val Site Overpasses Predictions

Prediction of Satellite NPP Overpassing Cal/Val Site: Antarctic Dome C

Ground Cal/Val Site Location: Latitude: -75.10, Longitude: 123.35; Satellite-Ground Site NADIR distance within 100 km.

Table of predicted overpasses for the next 14.0 days since TLE Epoch: 5/20/2023
Interval Starting Time Ending Time Minimum Distance Time Minimum Distance (km)
1 05/22/2023 14:56:44 05/22/2023 14:57:12 05/22/2023 14:56:58 16.50
2 05/23/2023 14:38:02 05/23/2023 14:38:14 05/23/2023 14:38:08 90.37
3 05/24/2023 07:39:33 05/24/2023 07:40:00 05/24/2023 07:39:46 36.60
4 05/25/2023 07:20:45 05/25/2023 07:21:05 05/25/2023 07:20:55 73.55
5 05/27/2023 15:02:58 05/27/2023 15:03:23 05/27/2023 15:03:10 53.53
6 05/28/2023 14:44:08 05/28/2023 14:44:32 05/28/2023 14:44:20 55.55
7 05/29/2023 07:45:48 05/29/2023 07:46:08 05/29/2023 07:45:58 71.83
8 05/30/2023 07:26:55 05/30/2023 07:27:22 05/30/2023 07:27:08 36.21
9 06/01/2023 15:09:17 06/01/2023 15:09:29 06/01/2023 15:09:23 91.16
